Regional Weather Roundup
Issued by NWS

Home | Current Version | Previous Version | Text Only | Print | Product List | Glossary Off
Versions: 1 2 3 4 5 6 7 8 9 10 11 12 13 14 15 16 17 18 19 20 21 22 23 24 25 26 27

000
ASUS45 KBOU 160306
RWRCO

WEATHER ROUNDUP FOR COLORADO
NATIONAL WEATHER SERVICE DENVER/BOULDER CO
900 PM MDT TUE APR 15 2014

NOTE: "FAIR" INDICATES FEW OR NO CLOUDS BELOW 12000 FEET WITH NO
SIGNIFICANT WEATHER AND/OR OBSTRUCTIONS TO VISIBILITY.

COZ001>005-013-030-031-160400-
...NORTHWEST COLORADO...

CITY           SKY/WX    TMP DP  RH WIND       PRES   REMARKS
CRAIG          CLOUDY    48  19  31 SW10      29.78S
HAYDEN         CLOUDY    46  19  34 SW8       29.82R
MEEKER         CLOUDY    50  15  24 SW18G31   29.80S
MOUNT WERNER   CLOUDY    34   9  35 SW21G30   29.92S WCI  22
STEAMBOAT SPGS CLOUDY    47  16  29 CALM      29.81R
WALDEN         MOCLDY    37  21  52 SW14G20   29.84R
$$

COZ006>008-011-160400-
...WEST CENTRAL VALLEYS...

CITY           SKY/WX    TMP DP  RH WIND       PRES   REMARKS
GRAND JUNCTION MOCLDY    50  31  48 NE5       29.82S
MONTROSE       PTCLDY    53  13  20 S7        29.90R
EAGLE          CLOUDY    46  21  36 CALM      29.88R
RIFLE          CLOUDY    53  21  28 SW7       29.83R
DELTA          PTCLDY    53  29  40 CALM      29.86R
NUCLA            N/A     50   9  18 SE6       29.94R
$$

COZ017>023-064>068-160400-
...SOUTHWEST COLORADO...

CITY           SKY/WX    TMP DP  RH WIND       PRES   REMARKS
DURANGO        MOCLDY    47  -2  13 CALM      29.95R
CORTEZ         CLEAR     41  16  36 NE8       29.93R
PAGOSA SPRINGS MOCLDY    48  -6  10 W7        29.99R
TELLURIDE      MOCLDY    39   7  26 CALM      30.03R
WOLF CREEK PAS MOCLDY    27   0  31 SW28G35   30.09R WCI  11
$$

COZ009-010-012-014-032>034-037-058>063-160400-
...CENTRAL COLORADO...

CITY           SKY/WX    TMP DP  RH WIND       PRES   REMARKS
ASPEN          MOCLDY    42  17  36 S8        29.90S
BUENA VISTA    PTCLDY    44   7  22 W16G24    29.90R
COPPER MTN     LGT SNOW  30  12  47 SW24G31   29.99R WCI  16
BERTHOUD PASS  FAIR      21  12  68 W47G60    29.89F WCI  -1
COTTONWOOD PAS PTCLDY    39   1  20 W17G32    29.93R
GUNNISON       PTCLDY    39  12  33 CALM      29.97S
KREMMLING      CLOUDY    45  10  24 SW10G17   29.85F
LEADVILLE      CLOUDY    30   9  41 VRB5      29.96S WCI  25
MONARCH PASS   MOCLDY    27   7  43 W31G39    30.13R WCI  10
SALIDA         PTCLDY    47   6  19 W7        29.96R
SUNLIGHT       CLOUDY    32  21  64 CALM      30.00S
WILKERSON PASS CLEAR     30   3  31 SW10G20   29.95S WCI  21
$$

COZ069>075-160400-
...SAN LUIS VALLEY/SANGRE DE CRISTO MOUNTAINS...

CITY           SKY/WX    TMP DP  RH WIND       PRES   REMARKS
ALAMOSA        MOCLDY    43  15  32 SW12      29.92R
LA VETA PASS   MOCLDY    34   9  35 SW16G32   29.93S WCI  23
SAGUACHE       PTCLDY    43   7  22 W14       29.93R
$$

COZ035-036-038>040-160400-
...NORTHERN COLORADO FRONT RANGE...

CITY           SKY/WX    TMP DP  RH WIND       PRES   REMARKS
DENVER INTL AP MOCLDY    54  13  19 W14G23    29.71S
DMNS CITY PARK   N/A     58   7  13 NW5G18    29.72R
AURORA         MOCLDY    52  14  22 NW14      29.74R
FRONT RANGE AP NOT AVBL
ERIE MUNI ARPT PTCLDY    52  21  29 SW7       29.71R
BOULDER MUN AP PTCLDY    57  14  18 NW6       29.71R
CENTENNIAL     MOCLDY    55   7  14 W3        29.74R
BROOMFIELD     PTCLDY    55   9  15 W12       29.74R
FORT COLLINS   CLOUDY    57  18  21 W18       29.71S
LONGMONT       CLOUDY    59  12  15 SW7       29.72R
$$

COZ041-046-047-076>085-087-088-160400-
...PIKES PEAK/PALMER DIVIDE AND SOUTHERN FOOTHILLS...

CITY           SKY/WX    TMP DP  RH WIND       PRES   REMARKS
COLO. SPRINGS  PTCLDY    56   5  13 W9        29.78R
A. F. ACADEMY  PTCLDY    51   7  17 NW10G17   29.79R
ELLICOTT       NOT AVBL
FALCON         PTCLDY    46  10  23 W10       29.82R
FORT CARSON    PTCLDY    55   7  14 W17G24    29.77R
LIMON          PTCLDY    45  24  43 CALM      29.73R
MONUMENT HILL  PTCLDY    41  18  38 W12       29.79R
TRINIDAD       PTCLDY    51  18  27 SW13      29.77R
$$

COZ042>045-048>051-090-091-160400-
...NORTHEAST COLORADO...

CITY           SKY/WX    TMP DP  RH WIND       PRES   REMARKS
GREELEY ARPT   CLOUDY    54  21  28 W10       29.68S
AKRON          PTCLDY    49  29  46 S10       29.69R
BURLINGTON     PTCLDY    41  24  51 SE12      29.72R
WRAY           CLEAR     51  27  38 S12       29.69R
STERLING       PTCLDY    52  37  58 SW8       29.66R
HOLYOKE        CLEAR     45  32  61 S9        29.68S
FORT MORGAN    PTCLDY    51  29  43 SE6       29.68S
$$

COZ086-089-092>099-160400-
...SOUTHEAST COLORADO...

CITY           SKY/WX    TMP DP  RH WIND       PRES   REMARKS
PUEBLO         MOCLDY    58  15  18 W12       29.73R
LA JUNTA       MOCLDY    58  30  34 SW9       29.68R
LAMAR          CLOUDY    58  25  28 S21       29.65F
SPRINGFIELD    NOT AVBL
$$



USA.gov is the U.S. government's official web portal to all federal, state and local government web resources and services.